Temp
66 64 65 65 65 66 62 61 60 60 59 58 58 59 60 61 60 60 63 64 64 65 65 65 66 67 66 66 66 66 65 63 60 64 63 64 63 63 66 65 67 67 66
66 64 64 67 66 65 64 63 64 63 62 59 60 60 60 60 60 61 61 65 63 63 64 65 66 70 65 65 65 63 62 62 59 58 61 60 60 63 63 63 67 71 66
67 67 66 65 65 65 64 64 63 62 59 60 60 59 59 60 60 60 61 62 62 63 63 63 63 63 62 64 65 63 63 63 60 57 60 60 60 62 60 61 61 61 68
67 67 65 65 65 65 64 61 60 60 60 59 60 59 60 60 61 61 61 61 61 63 63 63 63 64 62 63 63 62 62 60 58 58 58 60 60 62 60 59 61 60 60
66 66 65 66 64 65 61 61 60 60 61 60 59 59 59 61 65 61 61 61 61 61 62 63 65 67 70 67 63 62 59 58 57 56 55 58 59 60 57 59 58 60 58
67 66 67 67 63 62 61 60 59 60 60 60 60 60 60 66 67 66 64 60 61 60 60 61 63 68 67 68 68 68 64 59 56 54 55 55 56 58 61 58 57 57 53
64 67 66 63 63 62 62 61 60 60 61 61 61 61 61 62 66 65 67 61 60 59 59 60 63 70 68 65 66 66 66 66 65 58 55 55 56 60 57 58 58 55 56
64 65 64 63 63 63 62 61 61 61 62 61 61 62 62 64 66 64 64 61 60 60 61 61 60 62 64 63 63 62 63 63 63 64 62 62 60 62 58 61 59 57 58
64 64 64 64 63 63 62 62 65 66 65 67 65 62 61 62 63 64 62 60 60 60 62 62 61 61 64 64 66 63 65 64 66 64 64 63 62 62 62 56 57 53 54
65 65 65 65 64 63 62 63 65 65 63 65 66 63 63 62 63 62 61 60 59 61 60 62 65 65 64 63 62 62 60 63 64 60 60 60 61 61 64 62 60 53 53
65 65 65 65 64 64 63 63 63 62 62 61 61 62 62 62 63 61 59 60 63 61 60 62 64 62 59 58 57 59 60 65 62 59 59 57 59 60 63 66 60 59 53
65 65 64 64 66 67 63 65 63 62 60 60 60 60 64 64 61 62 60 59 63 62 63 66 64 61 59 58 57 58 58 60 57 56 54 59 61 62 65 64 61 61 63
65 64 64 64 65 65 65 61 61 60 59 59 58 59 62 63 65 61 60 59 59 59 64 65 62 58 57 58 57 57 58 58 58 58 58 61 63 65 66 62 62 61 61
63 63 63 63 63 63 63 63 61 64 61 60 60 59 60 62 62 62 61 60 59 58 60 60 61 61 60 62 60 61 58 58 59 60 61 63 65 65 64 59 63 64 58
64 63 63 63 63 65 65 67 65 63 63 61 61 61 60 59 63 60 62 60 57 54 55 56 56 57 59 62 63 64 65 64 57 58 57 58 58 59 62 65 63 64 62
63 63 62 61 62 62 61 62 61 61 59 55 54 59 68 60 56 54 49 48 49 51 52 55 56 61 60 61 62 61 63 56 56 55 55 56 56 56 56 57 57 58 60
62 62 62 62 62 61 62 61 61 63 54 56 54 53 50 55 53 47 47 48 51 48 55 58 61 60 59 56 56 56 56 58 58 57 56 56 56 55 55 55 56 56 55
64 62 61 60 61 62 62 63 63 62 61 63 59 52 53 49 46 47 47 50 55 52 55 57 60 54 56 55 55 56 55 56 56 56 56 55 55 54 53 53 53 53 53
64 63 63 63 63 64 66 64 63 62 62 63 68 64 57 44 46 46 48 55 55 54 57 58 55 55 54 54 55 54 55 54 55 56 54 53 53 52 51 51 52 50 51
65 65 65 67 66 63 63 62 62 63 62 65 67 64 58 58 58 58 57 54 54 57 58 58 57 55 55 54 54 54 54 55 53 55 51 52 52 51 50 50 51 52 53
66 67 68 69 68 69 68 66 67 67 66 64 62 58 54 59 58 58 57 57 58 58 58 57 56 56 55 56 55 53 52 54 53 52 49 48 48 48 48 49 49 49 52
67 67 67 67 67 67 69 71 68 65 60 61 60 59 52 56 58 58 58 58 58 58 57 57 55 54 54 55 53 53 51 53 51 48 46 46 45 46 47 47 48 47 47
68 68 68 68 69 69 65 63 62 59 60 58 58 59 60 59 60 58 60 57 57 57 56 55 54 53 54 54 54 52 49 51 48 47 45 44 44 45 45 45 46 47 47
68 69 70 74 70 66 64 63 60 56 59 61 61 62 64 60 60 58 58 57 56 56 55 55 54 55 54 53 48 49 49 47 47 45 45 45 44 43 44 44 46 49 51
71 72 73 67 66 62 60 60 61 62 62 65 63 62 60 57 56 57 56 56 55 55 55 54 53 55 58 54 50 48 36 33 43 39 43 43 44 44 45 46 49 50 52
70 69 66 63 63 62 62 62 66 65 66 63 61 59 58 56 57 57 55 55 54 54 55 54 54 55 56 51 48 39 34 32 39 33 38 45 45 47 47 48 50 50 53
MSLP
1016.85 1017.05 1017.38 1017.72 1018.07 1018.54 1018.95 1019.18 1019.56 1019.94 1020.36 1020.68 1020.61 1020.56 1020.58 1020.98 1021.07 1020.72 1020.65 1020.78 1020.74 1020.77 1020.47 1020.50 1020.60 1020.56 1020.58 1020.57 1020.67 1020.57 1020.96 1021.09 1021.09 1020.37 1020.19 1019.72 1019.49 1019.13 1018.74 1018.51 1018.11 1017.97 1017.86
1017.21 1017.30 1017.60 1017.84 1018.36 1018.79 1019.23 1019.39 1019.65 1019.86 1020.22 1020.64 1020.92 1020.79 1020.87 1020.97 1020.92 1020.96 1020.83 1020.88 1020.99 1020.70 1020.63 1020.54 1020.65 1020.53 1020.61 1020.57 1020.66 1020.67 1020.90 1021.06 1021.06 1020.86 1020.60 1020.11 1019.80 1019.32 1018.93 1018.75 1018.26 1017.94 1017.77
1017.18 1017.34 1017.65 1017.93 1018.32 1018.83 1019.20 1019.45 1019.75 1020.18 1020.58 1020.57 1020.76 1020.80 1020.89 1020.87 1020.80 1020.93 1020.71 1020.74 1020.83 1021.05 1020.86 1020.72 1020.72 1020.68 1020.63 1020.60 1020.57 1020.60 1020.47 1020.71 1020.88 1020.85 1020.36 1019.98 1019.64 1019.34 1018.82 1018.51 1018.45 1018.00 1017.51
1017.32 1017.53 1017.75 1018.05 1018.38 1018.82 1019.31 1019.69 1019.90 1020.08 1020.37 1020.45 1020.53 1020.71 1020.79 1020.77 1020.81 1020.67 1020.79 1020.84 1020.67 1020.48 1020.54 1020.58 1020.59 1020.47 1020.35 1020.22 1020.26 1020.32 1020.25 1020.47 1020.53 1020.66 1020.14 1019.84 1019.54 1018.93 1018.64 1018.59 1018.16 1017.82 1017.41
1017.51 1017.63 1017.89 1018.18 1018.50 1018.88 1019.27 1019.67 1019.94 1020.08 1020.17 1020.20 1020.48 1020.55 1020.52 1020.54 1020.49 1020.47 1020.55 1020.57 1020.56 1020.47 1020.40 1020.26 1020.16 1020.06 1019.91 1019.85 1019.88 1019.85 1020.03 1020.11 1020.30 1020.36 1020.29 1019.86 1019.31 1018.77 1018.64 1018.52 1018.23 1017.61 1017.32
1017.53 1017.71 1017.84 1018.18 1018.42 1018.84 1019.11 1019.58 1019.77 1019.87 1019.96 1020.14 1020.24 1020.13 1020.26 1020.18 1020.08 1019.97 1020.06 1020.18 1020.26 1020.38 1020.32 1020.01 1019.87 1019.69 1019.46 1019.42 1019.26 1019.29 1019.44 1019.77 1020.03 1020.21 1020.12 1019.75 1019.09 1018.47 1018.14 1018.04 1017.92 1017.60 1017.40
1017.54 1017.70 1017.94 1018.26 1018.59 1018.68 1018.89 1019.19 1019.52 1019.57 1019.59 1019.76 1019.71 1019.68 1019.71 1019.54 1019.47 1019.43 1019.48 1019.63 1019.76 1019.74 1019.85 1019.72 1019.55 1019.31 1019.16 1019.11 1018.91 1018.80 1018.80 1018.81 1018.97 1019.16 1019.24 1018.82 1018.46 1017.83 1017.62 1017.55 1017.37 1017.37 1017.01
1017.24 1017.58 1017.95 1018.17 1018.45 1018.31 1018.53 1018.89 1019.07 1019.15 1019.21 1019.14 1019.13 1019.05 1019.14 1019.01 1018.89 1018.83 1018.86 1019.02 1019.24 1019.29 1019.28 1019.19 1019.17 1018.95 1018.71 1018.75 1018.68 1018.61 1018.32 1018.09 1018.01 1018.21 1018.11 1017.54 1017.39 1016.89 1016.96 1016.83 1016.84 1016.68 1016.12
1017.14 1017.53 1017.74 1017.85 1018.02 1018.10 1018.42 1018.59 1018.50 1018.63 1018.62 1018.53 1018.51 1018.50 1018.70 1018.54 1018.35 1018.30 1018.43 1018.63 1018.85 1018.84 1018.69 1018.55 1018.49 1018.47 1018.09 1017.82 1018.10 1018.19 1017.83 1017.39 1016.80 1016.79 1016.65 1016.45 1016.34 1016.09 1015.97 1016.39 1016.12 1016.27 1015.90
1016.90 1017.12 1017.17 1017.34 1017.54 1017.78 1018.10 1018.20 1018.18 1018.12 1018.27 1018.16 1018.17 1018.17 1018.01 1017.96 1017.89 1017.86 1018.10 1018.33 1018.58 1018.38 1018.20 1018.03 1017.81 1017.72 1017.58 1017.42 1017.60 1017.49 1017.36 1016.70 1016.29 1016.06 1016.02 1015.87 1015.64 1015.46 1015.10 1014.89 1014.79 1015.20 1015.16
1016.42 1016.62 1016.87 1016.98 1017.22 1017.41 1017.65 1017.77 1017.93 1018.00 1017.99 1017.98 1018.00 1017.75 1017.60 1017.55 1017.45 1017.51 1017.60 1017.80 1017.76 1017.93 1017.92 1017.62 1017.23 1016.95 1016.87 1016.73 1016.51 1016.63 1016.47 1015.92 1015.89 1015.94 1015.68 1015.42 1015.09 1014.68 1014.25 1013.67 1013.55 1013.76 1013.73
1016.19 1016.52 1016.76 1016.91 1017.09 1017.23 1017.47 1017.51 1017.61 1017.70 1017.85 1017.74 1017.73 1017.58 1017.17 1016.89 1016.87 1016.69 1016.56 1016.74 1016.79 1017.28 1017.16 1016.83 1016.64 1016.37 1016.26 1016.07 1015.87 1015.55 1015.34 1015.14 1015.29 1015.29 1015.35 1014.90 1014.48 1013.94 1013.28 1012.93 1012.59 1012.46 1012.09
1016.21 1016.48 1016.66 1016.72 1016.82 1016.84 1016.99 1017.16 1017.28 1017.32 1017.33 1017.24 1017.29 1017.21 1016.85 1016.41 1016.16 1015.70 1015.61 1015.62 1015.84 1016.57 1016.30 1016.07 1015.90 1015.83 1015.67 1015.57 1015.20 1014.86 1014.77 1014.96 1014.79 1014.59 1013.97 1013.35 1012.90 1012.48 1012.40 1012.19 1011.66 1011.53 1011.20
1016.01 1016.30 1016.43 1016.56 1016.56 1016.36 1016.32 1016.45 1016.65 1016.66 1016.67 1016.65 1016.66 1016.59 1016.22 1015.92 1015.51 1015.14 1015.04 1014.99 1014.92 1015.30 1015.48 1015.62 1015.57 1015.45 1015.13 1014.77 1014.42 1014.16 1014.04 1013.73 1013.46 1013.02 1012.64 1012.15 1011.91 1011.79 1011.67 1011.39 1011.25 1010.56 1010.56
1015.75 1015.97 1016.08 1016.07 1015.98 1015.91 1015.80 1015.77 1015.89 1015.70 1015.68 1015.66 1015.63 1015.64 1015.51 1015.29 1014.61 1014.31 1014.39 1014.72 1015.19 1015.26 1015.15 1015.07 1014.78 1014.56 1014.19 1013.67 1013.26 1013.02 1012.86 1012.70 1013.09 1013.06 1012.63 1012.54 1012.67 1012.44 1012.16 1011.36 1010.90 1010.47 1010.13
1015.48 1015.63 1015.71 1015.75 1015.63 1015.45 1015.34 1015.22 1014.85 1014.69 1014.51 1014.55 1014.44 1014.52 1014.22 1013.99 1013.69 1013.64 1013.76 1014.48 1014.57 1014.33 1014.54 1014.30 1014.05 1013.50 1013.31 1013.06 1012.92 1012.49 1012.08 1012.78 1013.10 1012.95 1012.48 1012.02 1011.50 1011.80 1011.27 1011.49 1010.99 1010.48 1009.75
1014.98 1015.25 1015.36 1015.33 1015.35 1015.27 1015.00 1014.89 1014.78 1013.84 1013.73 1013.72 1013.60 1013.41 1013.49 1013.47 1013.13 1013.55 1014.46 1014.51 1014.36 1014.33 1014.34 1013.61 1013.11 1012.87 1012.82 1012.99 1012.77 1012.41 1012.12 1011.74 1012.17 1011.91 1011.87 1011.32 1010.78 1011.27 1011.52 1010.94 1010.00 1009.66 1009.47
1014.46 1014.75 1014.85 1014.84 1014.79 1014.64 1014.50 1014.25 1014.02 1013.95 1013.82 1013.28 1012.54 1012.45 1012.08 1011.96 1012.71 1013.09 1012.74 1012.93 1012.96 1013.09 1013.71 1013.14 1012.51 1012.64 1012.48 1012.48 1012.33 1012.00 1011.70 1011.63 1011.47 1011.10 1010.87 1011.10 1010.78 1011.24 1011.04 1010.76 1010.12 1009.61 1009.52
1013.89 1014.06 1014.09 1014.11 1014.06 1013.98 1013.84 1013.65 1013.35 1013.07 1012.91 1012.52 1012.06 1011.68 1011.48 1012.50 1013.21 1013.68 1013.62 1012.47 1012.13 1012.20 1012.63 1012.62 1012.64 1012.27 1011.96 1011.93 1011.73 1011.67 1011.52 1011.23 1010.77 1010.70 1010.85 1010.87 1011.01 1010.87 1010.72 1010.20 1009.97 1009.51 1009.19
1013.10 1013.06 1013.16 1013.31 1013.25 1013.10 1012.87 1012.72 1012.50 1012.21 1012.06 1011.89 1012.09 1012.40 1012.57 1012.41 1012.57 1011.94 1012.10 1012.06 1011.76 1011.63 1011.91 1012.24 1011.83 1011.71 1011.62 1011.50 1011.36 1011.37 1011.17 1010.73 1010.58 1010.60 1010.90 1010.83 1010.58 1010.46 1010.35 1010.05 1009.70 1009.34 1008.78
1012.24 1012.35 1012.38 1012.35 1012.25 1012.03 1011.82 1011.70 1011.49 1011.50 1011.86 1011.81 1011.88 1011.96 1011.00 1010.78 1011.31 1011.33 1011.75 1011.80 1011.72 1010.86 1011.31 1011.59 1011.61 1011.36 1011.01 1010.79 1010.89 1010.81 1010.66 1010.50 1010.52 1010.81 1011.04 1010.97 1010.81 1010.72 1010.41 1009.99 1009.52 1009.10 1008.62
1011.58 1011.64 1011.44 1011.22 1011.07 1010.99 1010.83 1010.64 1011.04 1011.32 1011.66 1011.67 1011.22 1011.03 1010.84 1010.64 1010.83 1010.89 1011.23 1011.28 1011.04 1010.81 1011.15 1010.94 1010.88 1010.66 1010.46 1010.36 1010.32 1010.26 1010.43 1010.63 1010.66 1010.83 1011.03 1010.97 1010.76 1010.51 1010.20 1009.76 1009.20 1008.61 1008.21
1010.81 1010.78 1010.75 1010.63 1010.37 1010.34 1011.00 1011.38 1011.16 1010.82 1010.66 1010.52 1010.82 1010.67 1010.45 1010.50 1010.46 1010.56 1010.56 1010.67 1010.71 1010.84 1010.75 1010.47 1010.32 1010.10 1010.00 1009.80 1009.62 1009.89 1010.11 1010.28 1010.28 1010.55 1010.70 1010.59 1010.37 1010.10 1009.79 1009.38 1008.85 1008.36 1007.84
1010.15 1010.12 1010.15 1010.17 1010.53 1010.70 1010.58 1010.67 1010.56 1010.26 1009.56 1010.09 1010.20 1010.25 1010.31 1010.48 1010.58 1010.54 1010.65 1010.58 1010.58 1010.49 1010.36 1010.30 1010.04 1009.72 1009.37 1009.21 1009.64 1009.64 1009.77 1009.98 1010.10 1010.36 1010.40 1010.38 1010.13 1009.65 1009.26 1008.83 1008.25 1007.67 1007.22
1009.40 1009.41 1009.63 1009.87 1009.92 1010.09 1010.27 1010.29 1009.98 1009.45 1010.08 1009.95 1009.93 1010.05 1010.32 1010.53 1010.64 1010.54 1010.47 1010.53 1010.54 1010.50 1010.39 1010.17 1009.81 1009.46 1009.26 1009.13 1009.51 1009.94 1010.68 1010.63 1010.29 1010.43 1010.52 1010.29 1009.83 1009.35 1008.82 1008.32 1007.66 1007.01 1006.46
1008.65 1008.72 1008.83 1009.10 1009.09 1009.16 1008.61 1008.60 1009.03 1009.38 1009.51 1009.57 1009.90 1010.08 1010.08 1010.31 1010.26 1010.29 1010.44 1010.56 1010.57 1010.48 1010.32 1010.08 1009.50 1009.09 1008.93 1008.99 1009.16 1009.57 1009.75 1010.09 1009.96 1009.59 1010.27 1009.92 1009.28 1008.77 1008.35 1007.75 1007.06 1006.57 1006.07
Wind_Speed
5 5 7 7 7 8 5 5 6 6 5 4 3 5 4 2 1 2 1 2 2 1 0 2 4 1 2 0 2 2 2 2 3 4 2 5 6 6 6 4 5 5 5
7 5 6 8 7 7 5 6 6 6 5 5 3 2 2 1 2 1 2 3 2 3 3 3 4 3 4 3 1 1 0 1 1 7 4 3 4 5 3 4 5 6 6
7 8 8 7 7 7 6 5 6 6 4 4 4 3 4 4 4 3 1 1 1 3 4 3 5 5 5 3 3 3 2 1 1 2 5 2 3 3 3 3 3 5 5
7 6 7 6 6 6 6 5 5 5 5 5 4 5 5 4 4 4 4 4 4 4 5 5 5 5 5 5 5 5 3 2 2 3 4 5 3 4 2 4 7 4 5
6 7 7 6 6 7 6 6 5 5 4 5 5 4 4 4 4 6 5 5 5 5 6 5 5 7 11 8 3 5 4 3 2 3 4 5 6 4 4 3 5 5 3
5 6 7 7 6 7 7 6 6 5 5 5 6 5 6 4 9 8 9 6 5 5 6 6 6 9 10 12 14 14 9 5 5 3 4 6 8 6 5 5 4 4 4
6 7 7 6 6 7 7 7 7 7 5 7 7 6 7 7 11 10 10 6 6 6 6 6 6 7 9 6 8 11 11 14 13 6 7 7 6 6 4 6 7 4 5
7 6 7 7 7 7 7 7 6 5 7 6 7 7 6 6 11 8 11 7 6 7 7 7 7 9 9 7 7 7 9 9 11 10 11 13 10 10 6 7 7 7 6
7 7 7 7 7 7 6 6 6 4 3 4 4 5 5 7 9 9 6 5 6 7 7 7 7 8 13 17 12 10 13 12 9 16 15 15 14 13 13 3 7 3 4
7 8 7 6 5 6 6 5 5 2 3 3 4 5 8 7 9 10 7 4 6 6 6 7 12 11 15 18 11 11 11 13 10 7 6 7 9 9 15 8 6 6 5
7 6 5 4 4 2 2 2 1 2 4 5 6 7 7 7 8 11 11 6 7 5 5 6 6 11 11 11 10 6 10 10 9 7 8 5 6 7 8 9 6 7 5
5 5 4 4 4 3 6 4 4 5 6 7 6 6 6 7 11 13 16 15 12 7 9 7 7 13 13 10 6 12 16 14 5 6 5 9 10 10 10 8 8 10 8
5 5 4 5 6 7 5 7 5 5 5 6 4 5 7 5 6 15 17 15 14 7 8 11 13 9 12 10 16 17 15 6 7 8 10 11 11 11 11 8 9 10 9
5 5 5 6 7 7 5 5 5 6 5 5 5 6 5 5 5 5 5 5 10 7 8 8 10 12 13 14 9 9 7 8 10 11 10 11 9 9 10 9 10 9 5
6 6 6 6 7 8 8 8 7 7 7 6 6 5 5 6 8 8 7 3 2 2 0 2 4 4 6 8 8 8 8 7 2 4 5 7 8 8 10 10 8 9 9
5 3 3 3 5 5 5 6 11 14 14 15 16 10 8 13 14 14 6 12 11 12 3 3 3 6 7 6 7 5 4 4 3 4 1 2 5 7 6 9 8 8 8
6 4 4 5 4 4 4 4 5 6 16 19 19 19 13 18 17 6 12 6 9 7 5 6 8 6 4 3 2 2 2 1 5 5 4 6 4 7 9 9 9 5 4
6 8 5 5 5 5 5 5 4 5 5 5 9 14 16 20 5 11 14 10 3 1 8 10 8 4 4 4 4 4 4 4 4 4 2 6 4 7 7 6 4 4 4
6 5 6 5 5 7 8 7 6 6 5 6 7 9 9 8 3 6 9 2 3 4 4 7 6 5 4 5 5 4 5 5 4 4 3 3 4 4 5 5 6 8 7
7 14 10 7 7 6 6 5 6 6 6 7 7 2 4 3 3 5 5 3 4 3 3 7 7 4 5 5 4 5 5 5 4 0 2 3 4 3 4 5 5 5 5
5 6 10 8 9 10 9 8 8 7 3 2 1 4 12 6 4 2 4 4 5 4 5 7 5 5 5 5 3 4 4 2 3 3 4 4 4 4 5 5 4 5 5
4 5 5 5 5 7 10 10 0 2 2 4 6 4 5 1 2 3 4 4 2 2 3 3 3 4 3 3 4 4 2 4 4 4 3 3 4 5 5 5 5 4 4
5 5 5 5 6 6 8 5 1 4 5 4 5 2 1 2 3 4 3 2 2 1 3 2 3 3 2 3 3 3 6 4 4 4 1 2 4 4 4 5 5 6 6
6 6 7 7 4 5 1 2 5 6 2 1 2 3 2 3 4 5 4 2 2 3 3 4 4 5 5 3 5 4 3 3 3 2 1 3 5 6 5 5 7 10 9
7 8 7 5 5 4 3 4 5 5 4 2 2 1 4 5 4 3 2 2 3 3 3 3 1 4 6 4 8 8 5 5 4 3 4 5 6 9 6 5 8 7 5
6 4 6 4 3 3 3 1 3 3 2 2 2 3 3 4 4 3 1 1 3 4 5 3 4 3 4 7 10 10 7 5 2 3 2 6 5 6 6 8 10 5 7
Wind_Direction
131 128 128 114 108 115 115 109 106 103 102 100 115 123 109 95 355 43 47 271 260 272 94 253 260 248 207 45 38 67 45 28 311 317 311 311 328 323 326 334 8 346 335
147 142 122 116 117 122 124 119 124 106 115 132 145 120 103 184 156 215 321 33 300 13 330 350 325 346 329 301 226 214 187 260 159 304 297 288 282 306 302 353 342 343 324
140 139 136 133 138 136 127 115 112 129 154 160 183 174 194 187 188 212 151 342 337 293 293 301 290 307 295 272 262 248 240 218 202 265 295 268 266 293 307 315 303 301 316
129 123 117 120 113 117 124 135 150 169 178 183 195 196 198 197 201 203 215 231 250 257 278 279 269 274 271 276 250 246 239 258 245 267 296 298 262 268 259 314 313 302 316
133 131 133 135 144 140 150 158 161 166 195 156 166 189 208 222 222 216 230 242 251 263 269 266 271 272 270 252 227 259 245 252 278 287 284 286 298 298 287 234 260 287 294
132 140 144 155 147 157 150 160 170 196 191 188 206 205 222 230 244 237 201 215 236 255 271 279 273 280 285 279 266 233 210 216 239 231 256 261 271 272 278 282 278 307 313
164 164 157 153 150 148 159 164 189 203 198 211 225 220 228 233 242 244 221 213 228 244 256 266 273 273 273 266 272 252 247 222 218 207 240 240 263 257 252 281 286 249 257
154 148 148 155 170 170 170 187 209 206 214 221 239 242 238 243 242 244 238 216 223 237 241 246 242 263 267 252 259 262 257 241 233 231 231 252 237 259 218 253 257 263 271
151 157 173 177 181 181 200 208 215 210 224 229 228 255 261 265 256 257 240 217 234 244 245 247 231 242 258 261 264 261 267 255 238 234 244 251 241 246 251 243 263 232 274
174 178 182 194 183 173 205 206 216 197 247 269 292 270 250 253 256 244 212 204 230 241 256 262 268 258 264 270 264 256 257 252 254 259 259 270 261 267 277 251 244 224 227
158 154 151 151 144 180 228 200 184 247 266 266 259 263 262 245 259 242 219 209 227 233 233 253 258 260 256 251 235 218 231 260 266 249 257 264 272 267 268 269 237 201 206
139 143 158 168 200 216 222 230 229 232 246 252 255 272 269 265 239 252 249 212 226 213 239 249 253 260 281 269 254 235 245 250 244 245 249 263 268 267 262 260 233 222 221
148 178 192 206 217 234 209 218 227 237 232 250 236 244 262 265 257 241 246 241 235 218 239 246 257 275 276 271 260 256 256 254 244 246 245 250 246 251 255 257 245 230 232
193 210 221 222 235 236 235 222 221 242 244 236 239 243 244 255 255 240 225 235 230 220 247 260 258 259 267 265 273 254 240 236 233 244 255 262 268 260 254 253 250 243 229
213 229 238 225 230 237 234 231 227 230 207 219 230 220 226 263 261 225 213 202 79 154 79 251 250 241 257 260 260 264 272 271 292 294 279 293 310 320 299 283 261 264 256
216 250 267 290 284 255 236 255 241 233 238 238 248 232 253 236 252 263 270 146 168 184 171 226 267 263 273 281 295 303 338 58 325 285 211 210 274 285 261 285 280 279 292
197 234 266 280 278 292 309 282 272 288 241 251 256 257 244 250 264 21 94 149 198 179 239 241 257 280 286 273 226 204 239 244 242 258 258 265 287 249 252 260 253 245 263
196 220 237 255 258 266 265 266 261 251 251 274 251 229 249 248 209 174 193 192 219 197 266 273 275 289 251 240 246 241 248 247 242 258 266 271 270 263 272 263 254 259 253
191 220 224 234 241 245 255 259 247 254 256 258 278 273 262 93 68 350 280 251 242 275 283 290 271 251 233 258 262 267 272 262 255 261 238 251 264 258 272 272 266 250 246
203 224 225 233 242 238 234 236 252 249 246 260 286 11 153 194 225 206 222 253 229 194 270 267 257 251 254 253 245 249 254 270 297 117 300 289 291 300 290 286 297 292 287
223 237 241 239 242 245 246 241 242 260 281 141 96 252 209 193 251 305 337 272 237 185 230 238 255 259 259 250 239 259 261 275 88 53 1 335 328 310 289 280 281 297 299
233 240 249 250 236 235 241 246 258 103 136 249 251 247 208 87 278 249 229 237 253 160 253 242 258 263 274 265 245 253 305 103 95 62 29 341 321 308 300 292 282 271 269
243 259 267 269 264 299 61 66 148 190 215 230 273 289 74 250 243 234 240 168 142 212 260 252 261 268 261 248 215 186 151 159 142 140 190 282 288 283 284 285 294 291 274
231 239 252 276 28 80 120 277 273 268 45 295 153 89 19 6 22 34 78 16 213 249 267 289 268 257 253 242 154 149 125 124 111 127 358 287 288 288 283 279 275 276 274
237 245 260 174 165 196 159 235 277 351 297 160 112 173 79 136 138 135 87 22 13 353 320 309 321 6 350 28 138 105 79 37 89 23 338 297 286 290 285 284 287 285 292
252 193 198 185 217 223 148 96 307 136 131 149 77 106 153 182 161 134 105 298 320 311 325 319 304 19 95 113 140 153 137 135 101 83 303 273 282 296 293 295 298 297 303